STARLINK-1767, 46345

Orbit data source: Space-Track

STARLINK-1767, 46345 is a payload satellite owned by SpaceX/Seattle (US) in LEO that was launched on Thu, 03 Sep 2020 UTC via an FALCON 9 launch vehicle from the Air Force Eastern Test Range (AFETR). Payload-class satellites include a variety of spacecraft equipped with specific instruments for various scientific and technological missions. These include communications satellites like Starlink; space stations such as the ISS; scientific satellites like the Hubble; Earth observation satellites from companies like Planet Labs, Umbra, and HawkEye 360; GPS; miniature CubeSats for education and research; and military/defense satellites.

Loading next visibility...
Identifier
46345, 2020-062W
Orbit
LEO
Country
Flag of USUS
Related business
Manufacturer
SpaceX/Seattle
Mission
Partially operational Commercial Communications
Bus & Motor
STARLINK, Unknown motor
Mass
260 kg wet, ~248 kg dry
Launch date (UTC)
2020-09-03 (5 years ago)
Launch vehicle
FALCON 9
Launch site
Air Force Eastern Test Range (AFETR)
Object type
Payload
Rocket body
Debris
Shape & HBR
Box + 1 Pan, 10.1 m
Radar Cross Section
13.562 m², Large (>1 m²)

Expand to show TLE details & history
Last TLE update: 11 hours ago

TLE from 11 hours ago
0 STARLINK-1767
1 46345U 20062W   25353.00002315  .00238046  00000-0  20837-2 0  9996
2 46345  53.0407 337.8749 0004458  53.5439 341.7364 15.67626406  5853
Epoch: 2025-12-19T00:00Z
TLE epoch observation values (Epoch: 2025-12-19T00:00:02.000Z)
Latitude
27.55673°
Longitude
-86.99901°
Altitude
364.157 km
Speed
7.696 km/s
True Right ascension
00h 03m 25s
True Declination
27° 24' 28"
Sunlit
Object was in daylight at epoch
Visualization orbit readout
Latitude
Unknown
Longitude
Unknown
Altitude
Unknown
Speed
Unknown
Apparent Right ascension
Unknown
Apparent Declination
Unknown
Sunlit
N/A
Visualization observer readout
Local Sidereal Time
09:37:04
Azimuth
Unknown
Elevation
Unknown
Doppler factor
Unknown
Orbital elements
Apogee altitude
368.982 km
Perigee altitude
362.969 km
Semi-major axis
6,744.113 km
Eccentricity
0.00045
Inclination
53.0407°
RAAN
337.8749°
Arg. of periapsis
53.5439°
True anomaly
341.72038°
Mean anomaly
341.7364°
Eccentric anomaly
341.72839°
Mean motion
3.91883 °/min
Orbital period
91.86 mins
BSTAR
0.0020837
Loading maneuver chart data...
Computing Atmospheric mass density...
Loading historical data...
Loading historical data...
Loading historical data...
Loading historical data...
Loading historical data...
Loading historical data...
Loading historical data...

Documentation

Showing up to 5 results
|